Home > Weather > Gloucester > Past weeks

Flag for United Kingdom Past Weather in Gloucester, England, United Kingdom — Yesterday and Last 2 Weeks

Now
61 °F

Scattered showers. Scattered clouds.


Feels Like: 61 °F
Forecast: 52 / 64 °F
Wind: 8 mph from Southwest

Location: Staverton Private

Current Time: Jun 30, 2016 at 10:27:37 PM

Latest Report: Jun 30, 2016 at 7:20 PM


Visibility: N/A

Pressure: 29.77 "Hg

Humidity: 83%

Dew Point: 55 °F

Location of GloucesterLocation

Past Weather in Gloucester — Graph

°F

Gloucester Temperature Yesterday

Maximum temperature yesterday: 63 °F (at 3:20 PM)
Minimum temperature yesterday: 55 °F (at 6:50 AM)
Average temperature yesterday: 59 °F

High & Low Weather Summary for the Past Weeks

 TemperatureHumidityPressure
High70 °F (Jun 20, 3:50 PM)94% (Jun 15, 7:20 PM)30.24 "Hg (Jun 15, 7:20 PM)
Low55 °F (Jun 17, 7:20 AM)46% (Jun 27, 4:20 PM)29.45 "Hg (Jun 15, 7:20 PM)
Average63 °F77%29.94 "Hg
* Reported Jun 15 7:20 PM — Jun 30 7:20 PM, Gloucester, Weather by CustomWeather, © 2016

Note: Actual official high and low records may vary slightly from our data, if they occured in-between our weather recording intervals... More about our weather records

Advertising

Gloucester Weather History for the Previous 24 Hours

Scroll right to see more
 ConditionsComfort  
Time TempWeatherWind HumidityBarometerVisibility
7:20 PM
Thu, Jun 30
61 °FScattered showers. Scattered clouds.8 mph83%29.77 "HgN/A
6:50 PM61 °FScattered showers. Scattered clouds.9 mph77%29.77 "HgN/A
6:20 PM61 °FScattered clouds.10 mph77%29.77 "HgN/A
5:50 PM63 °FScattered clouds.12 mph73%29.77 "HgN/A
5:20 PM63 °FScattered clouds.9 mph77%29.77 "HgN/A
4:50 PM64 °FScattered clouds.9 mph73%29.77 "HgN/A
4:20 PM64 °FPassing clouds.7 mph68%29.77 "HgN/A
3:50 PM63 °FSprinkles. Passing clouds.3 mph77%29.80 "HgN/A
3:20 PM63 °FSprinkles. Passing clouds.7 mph77%29.80 "HgN/A
2:50 PM63 °FPassing clouds.9 mph73%29.80 "HgN/A
2:20 PM64 °FPassing clouds.10 mph64%29.80 "HgN/A
1:50 PM64 °FScattered clouds.10 mph68%29.80 "HgN/A
1:20 PM64 °FPassing clouds.8 mph68%29.80 "HgN/A
12:50 PM63 °FPassing clouds.8 mph77%29.80 "HgN/A
12:20 PM64 °FScattered clouds.10 mph73%29.80 "HgN/A
11:50 AM63 °FScattered clouds.7 mph77%29.80 "HgN/A
11:20 AM63 °FScattered clouds.9 mph73%29.80 "HgN/A
10:50 AM63 °FScattered clouds.9 mph77%29.80 "HgN/A
10:20 AM64 °FScattered clouds.9 mph73%29.80 "HgN/A
9:50 AM63 °FScattered clouds.8 mph83%29.80 "HgN/A
9:20 AM61 °FScattered clouds.7 mph83%29.77 "HgN/A
8:50 AM61 °FPassing clouds.8 mph83%29.77 "HgN/A
8:20 AM59 °FPassing clouds.6 mph88%29.77 "HgN/A
7:50 AM59 °FPassing clouds.6 mph94%29.77 "HgN/A
7:20 AM59 °FPassing clouds.6 mph94%29.77 "HgN/A
6:50 AM57 °FPassing clouds.6 mph94%29.77 "HgN/A
Weather by CustomWeather, © 2016

See weather overviewHow to use our weather pages